World > North America > United States > Texas > Golden Acres

Hourly Golden Acres, TX Regional Weather

Feedback E-mail the Weather

Quick WX

Golden Acres, TX Weather Maps

°F °C°F °C
Golden Acres Weather Map
UTC Time: 8/14/2022, 07:41
Your Time:

Golden Acres, TX Regional Weather

Expires:202208140800;;068674
ASUS44 KSJT 140715
RWRSJT
WEST CENTRAL TEXAS REGIONAL WEATHER ROUNDUP
NATIONAL WEATHER SERVICE SAN ANGELO TX
200 AM CDT SUN AUG 14 2022

NOTE: "FAIR" INDICATES FEW OR NO CLOUDS BELOW 12,000 FEET WITH NO
SIGNIFICANT WEATHER AND/OR OBSTRUCTIONS TO VISIBILITY.


TXZ163-177-195>197-199-213-226-237-140800-
SOUTHEAST TEXAS
  
CITY           SKY/WX    TMP DP  RH WIND       PRES   REMARKS
COLLEGE STN    CLEAR     81  73  76 E7        29.94F                  
CALDWELL       SUNNY     79  71  77 CALM      29.95F                  
CROCKETT       SUNNY     75  73  94 CALM      29.95F                  
BRENHAM        PTCLDY    79  74  83 CALM      29.95S                  
HUNTSVILLE     CLEAR     79  74  84 CALM      29.95F                  
CONROE         CLEAR     76  75  97 E3        29.95F                  
HOUSTON BUSH   MOCLDY    78  76  93 E7        29.94S                  
HOUSTON HOBBY  CLOUDY    81  74  79 SE5       29.93S                  
PERLAND        MOCLDY    79  75  87 CALM      29.94F                  
WHARTON        PTSUNNY   77  75  92 E5        29.93F                  
$$


SKY/WX - Weather  TMP - Temperature  DP - Dew Point  RH - Humidity
WIND - Wind Direction/Speed PRES - Barometric Pressure VSB - Visibility
WCI - Wind Chill Index E13G22 Wind - East Wind 13 mph/Gusts of 22 mph

Trending Headlines

Golden Acres Radar Loop



Golden Acres Quick Facts


National Two Day Weather Forecast


E-mail the Golden Acres Weather Forecast

Voice your opinion or tell us about page issues...